Theta_e
317 318 318 318 316 315 314 314 314 314 315 316 316 317 319 320 320 320 319 320 321 321 322 323 321 319 317 317 316 317 317 317 317 317 317 316 317 317 317 316 314 314 314 314 315 316 317 317 318 317 317 319 321 321 322 321 317 321 326 326 324 323 320 320 320 319 318 319 317 316 316 315 315 315 315 315 315 315 316 314 313 313 312 311 310 309 309 308
317 318 318 318 317 316 315 314 314 314 315 316 317 318 320 321 321 320 319 320 321 321 323 322 321 318 317 317 316 317 317 317 318 317 317 316 317 317 315 313 312 312 313 312 313 313 315 316 317 317 318 319 321 321 322 322 319 322 325 323 322 321 319 318 318 317 317 317 316 316 315 315 315 314 314 314 315 315 314 313 313 312 310 310 309 308 307 306
317 317 318 318 318 317 316 314 314 314 316 317 319 320 321 322 321 320 320 321 321 322 323 323 321 318 317 317 317 317 317 319 319 317 317 317 317 315 313 312 312 312 313 312 312 313 314 315 316 317 318 319 321 321 321 322 321 321 322 322 321 319 318 317 317 316 316 316 315 315 315 315 314 314 314 314 315 314 313 312 312 311 309 308 307 306 305 305
317 317 317 318 319 319 317 315 314 314 316 318 320 321 322 322 321 321 320 321 322 322 323 322 320 318 317 317 317 317 316 321 320 316 317 317 316 313 312 312 312 312 312 312 313 314 316 317 317 317 319 320 320 320 320 320 320 319 319 321 319 317 318 317 316 316 316 315 315 315 315 314 313 314 314 314 315 314 312 311 311 310 308 307 306 305 304 304
318 317 317 318 318 319 319 316 315 315 316 319 321 322 322 322 321 321 321 322 322 322 323 322 320 318 317 317 318 316 317 323 321 316 317 317 314 313 313 312 312 312 312 313 314 316 317 318 318 318 319 320 320 320 320 318 317 318 318 319 317 316 317 316 316 315 315 314 314 314 314 313 314 314 314 314 314 313 312 311 310 308 307 306 305 304 303 303
318 318 317 318 319 319 320 318 316 315 316 319 322 323 323 322 322 322 321 322 322 322 322 322 320 318 317 317 317 317 320 322 319 316 317 316 314 313 313 312 312 312 312 313 314 316 317 318 317 317 318 318 318 318 319 318 317 317 318 317 316 315 316 316 315 315 314 314 314 314 313 313 314 314 314 314 313 312 311 310 309 307 306 305 304 304 303 302
318 318 318 318 320 320 320 319 317 316 316 319 322 323 323 323 323 322 322 322 322 322 322 322 321 318 317 318 319 320 322 320 316 317 317 315 314 313 312 312 312 312 312 313 313 314 318 318 317 317 316 318 318 317 318 317 316 317 318 317 315 315 316 315 315 314 313 313 313 313 312 313 314 314 313 313 312 311 310 309 308 306 305 304 304 303 302 302
317 318 318 318 320 321 321 320 319 317 317 318 321 322 323 323 323 323 322 322 322 322 322 322 320 318 318 319 322 323 321 318 316 317 316 315 314 313 313 312 312 312 312 313 313 314 318 318 317 317 317 318 318 316 317 316 316 318 318 316 315 315 315 314 314 313 313 313 312 312 312 313 314 314 313 313 312 310 308 307 306 305 305 304 303 303 302 301
315 316 317 318 319 320 321 321 320 318 317 318 319 321 322 323 323 323 323 322 322 322 322 321 320 318 317 318 320 322 321 318 316 316 315 314 314 313 313 312 311 312 313 314 313 314 316 316 316 316 315 317 317 316 316 315 316 318 316 315 315 315 315 314 313 313 313 312 311 312 312 313 314 314 313 312 310 308 307 306 305 305 304 303 303 302 302 301
314 314 315 316 318 319 320 320 320 319 318 318 318 319 321 322 322 322 322 322 322 321 321 321 320 318 317 318 320 322 321 317 315 315 315 314 314 314 313 312 311 311 313 314 313 313 314 314 314 314 315 317 316 316 316 316 316 316 315 314 315 315 315 313 313 313 312 311 311 312 312 313 313 314 313 311 309 308 307 306 305 304 304 303 302 302 301 300
314 314 314 315 316 318 320 320 320 320 319 318 318 318 319 319 320 320 321 321 322 321 321 321 320 317 318 320 321 321 319 316 315 315 315 315 314 314 313 312 311 311 313 314 313 313 313 313 313 314 317 317 315 316 316 316 316 315 314 314 313 314 314 313 313 313 312 312 312 312 312 313 313 313 312 310 309 308 307 306 305 304 303 303 302 301 301 300
314 314 314 314 315 317 319 320 320 320 320 319 318 318 318 318 319 319 320 321 321 321 321 321 320 317 318 321 320 319 317 315 315 315 315 315 314 314 313 312 311 311 312 313 313 313 313 313 312 314 316 315 315 316 316 315 315 313 313 313 314 314 313 313 313 313 312 312 312 311 313 313 312 313 312 310 308 307 306 305 305 304 303 302 301 301 300 300
314 315 315 315 315 316 317 319 320 321 321 321 320 320 319 319 319 319 320 320 321 321 320 320 320 317 318 321 318 316 316 314 315 315 315 315 315 314 313 312 311 311 311 313 313 313 312 312 312 314 315 314 314 315 314 314 313 313 313 314 315 314 313 313 313 313 312 313 312 312 313 313 313 313 312 309 308 307 306 305 304 303 303 302 301 301 300 300
314 315 316 316 316 316 316 318 319 320 321 320 320 319 320 319 319 319 319 320 321 320 320 320 319 317 319 319 316 315 315 314 315 315 315 315 315 314 313 312 312 311 311 312 313 313 312 311 311 313 314 314 314 314 314 314 313 314 315 316 317 316 314 314 313 313 312 313 313 312 312 313 313 313 311 309 308 307 306 305 304 303 302 302 301 301 300 300
313 315 316 317 317 317 317 317 318 319 320 320 319 318 318 317 318 318 318 319 320 319 319 320 319 319 320 318 315 315 315 315 316 316 315 315 315 314 313 312 312 311 311 312 313 312 312 311 311 313 315 314 313 314 315 315 313 314 317 318 319 317 315 314 313 312 312 313 313 312 312 312 312 312 311 309 308 307 305 304 303 303 302 302 301 301 300 300
313 314 316 317 318 317 317 317 318 319 319 319 318 317 316 316 316 317 317 318 319 318 320 320 319 319 320 319 317 315 316 316 315 316 315 315 315 313 313 312 312 312 311 312 312 312 313 312 312 314 314 313 313 315 317 317 316 316 317 318 318 317 315 314 313 312 312 312 312 312 312 312 312 310 309 308 307 306 305 304 303 302 302 301 301 301 300 300
312 313 315 317 318 318 317 317 317 318 319 319 318 316 315 315 315 316 317 318 318 318 321 320 320 319 319 319 318 317 317 316 316 316 316 315 315 313 313 313 312 312 312 313 314 314 314 313 314 315 313 313 315 316 318 319 319 319 318 317 317 315 313 312 312 312 312 312 312 311 311 312 312 309 308 307 306 305 304 303 303 302 302 301 301 300 300 300
311 313 314 316 318 318 317 317 318 319 319 318 317 316 316 315 315 316 318 318 317 319 322 320 319 322 321 318 318 318 318 317 316 316 316 315 314 313 313 313 313 313 313 314 315 315 314 313 314 316 316 315 314 314 316 317 318 319 318 316 316 314 312 312 312 312 312 312 311 311 311 312 311 309 307 307 306 305 304 303 302 302 301 301 300 300 299 299
311 312 313 315 318 318 318 318 318 320 320 318 317 316 316 315 315 317 319 317 315 320 322 319 319 323 322 319 317 318 316 316 316 315 315 315 314 314 314 314 314 314 315 317 317 316 315 315 317 319 319 315 312 313 315 315 314 315 315 315 314 314 313 313 313 311 311 311 311 311 311 311 311 309 307 306 305 304 303 302 302 302 301 301 300 300 299 299
310 311 312 315 317 318 318 318 319 320 321 319 318 317 315 314 316 318 317 314 315 317 318 318 319 320 320 319 317 316 316 316 315 315 315 315 314 314 314 314 315 315 317 318 319 316 314 318 320 319 315 311 310 312 313 312 312 312 314 314 315 315 314 313 313 311 310 311 311 311 311 310 310 310 307 305 305 303 303 302 302 302 301 300 300 300 299 299
310 311 312 314 316 318 318 318 319 321 321 321 320 318 313 311 314 316 313 314 315 316 317 318 318 318 319 319 316 314 315 316 315 315 315 314 314 315 315 315 316 318 318 318 319 316 315 319 320 314 311 309 310 311 311 311 311 312 314 315 315 316 315 313 313 311 310 311 310 310 310 309 310 310 307 305 304 303 302 302 301 301 300 300 300 299 299 298
310 310 311 313 315 317 317 318 320 320 321 322 320 317 312 310 311 311 311 314 315 316 318 318 317 317 316 317 315 314 315 316 315 315 314 313 314 314 314 315 316 317 318 318 319 318 317 319 315 310 310 310 311 311 311 311 312 313 315 315 316 317 315 313 312 311 310 310 310 310 310 309 310 309 306 304 304 303 302 301 301 301 300 300 299 299 298 297
310 310 311 312 315 317 318 319 320 320 321 322 320 316 313 311 310 310 313 316 318 319 320 318 317 317 316 316 315 314 315 315 315 314 313 313 314 313 313 314 314 316 318 317 317 317 317 317 312 310 311 310 311 312 312 312 313 315 315 315 316 317 315 314 313 311 310 310 310 310 310 309 309 308 306 304 303 302 302 301 301 300 299 299 298 298 297 296
309 310 311 312 314 316 318 319 319 320 322 321 318 315 314 311 310 311 314 317 320 320 318 317 317 318 317 315 315 314 314 314 314 313 312 313 313 313 313 313 312 316 317 314 313 315 316 313 310 311 312 311 312 314 314 314 314 316 317 317 316 315 313 313 312 310 309 310 311 310 308 309 309 308 306 304 303 302 302 301 300 299 299 298 298 297 296 296
310 309 310 311 313 316 318 318 318 320 321 320 317 314 313 311 310 313 314 317 320 320 318 317 316 317 316 314 314 314 313 313 313 313 312 312 313 313 313 313 313 316 317 313 312 314 314 311 310 313 313 314 315 315 316 317 314 314 317 317 314 312 311 312 312 311 310 311 310 309 308 309 310 308 306 304 303 302 301 300 300 299 299 298 297 297 296 296
310 309 309 310 313 316 318 317 318 320 320 319 317 314 312 311 311 313 315 319 321 320 320 319 318 317 315 315 315 314 315 314 312 312 312 311 312 312 313 314 314 315 314 311 312 313 311 309 311 314 314 315 317 315 316 317 314 313 315 314 310 309 311 312 312 311 311 311 310 310 309 308 309 309 307 304 304 303 301 300 299 299 298 297 297 296 296 296
309 309 309 310 313 317 318 317 318 320 320 317 316 314 312 311 312 314 319 324 325 323 321 319 319 318 316 315 315 315 318 316 312 312 311 311 312 311 312 314 314 314 310 310 315 314 311 311 312 314 313 314 315 314 315 315 314 314 313 311 309 309 311 312 311 311 311 310 310 310 309 307 307 309 308 305 305 303 300 300 299 299 298 297 296 296 296 295
309 309 309 311 315 318 319 319 320 321 320 318 316 313 312 312 312 315 322 325 324 323 321 317 317 316 315 315 314 314 315 315 314 313 310 311 312 310 312 313 312 312 309 311 317 314 312 314 314 314 313 313 313 313 313 313 313 312 309 308 308 308 309 310 310 311 310 309 309 310 310 309 308 309 308 306 305 302 300 300 299 298 297 296 296 296 295 295
309 308 309 312 317 320 320 320 321 320 319 317 314 312 311 312 313 317 322 323 323 322 318 316 316 315 315 314 314 314 313 314 315 313 310 311 312 310 312 311 309 310 310 311 314 312 311 312 311 312 312 312 311 310 310 311 312 309 308 310 310 310 311 310 311 312 310 308 307 308 310 310 310 310 308 307 305 302 300 299 298 297 297 296 296 295 295 295
308 308 309 313 318 320 319 320 320 319 318 315 313 312 310 313 318 321 322 322 322 321 316 316 318 316 316 315 315 314 313 314 312 311 311 310 310 310 310 310 307 309 312 311 312 312 309 307 307 309 311 310 308 308 308 309 309 308 309 312 311 311 312 310 312 311 308 309 308 308 309 309 310 311 308 306 305 303 301 299 298 297 296 296 295 295 294 294
308 309 310 313 317 318 317 318 317 317 318 314 312 311 311 316 320 320 320 319 319 319 317 317 318 317 316 318 319 315 313 315 312 311 313 311 310 309 310 312 310 311 314 314 314 313 310 309 310 308 308 308 308 308 308 307 307 309 310 310 310 311 310 309 312 311 309 311 309 306 308 308 309 309 305 302 301 301 300 298 298 297 296 295 295 295 294 294
308 310 312 315 317 317 316 316 315 315 316 314 312 311 313 319 320 317 319 318 318 321 320 319 319 317 317 319 320 318 317 318 314 312 315 314 313 313 313 315 315 317 320 318 316 315 314 314 312 309 307 308 310 311 310 309 309 309 309 309 309 311 310 310 313 313 311 310 305 304 305 305 305 306 304 300 299 299 298 297 297 296 295 295 295 294 294 294
310 312 315 317 318 317 316 316 315 315 315 311 310 312 314 319 320 320 321 319 320 323 321 321 320 319 319 320 320 320 319 320 315 312 314 314 314 316 316 315 315 319 320 318 316 315 317 315 311 310 308 308 310 311 312 312 310 309 308 308 309 310 309 309 310 312 312 309 304 303 304 303 304 305 303 300 298 298 297 296 296 295 295 295 294 294 294 294
313 315 317 318 318 318 316 315 314 313 312 308 308 313 316 318 320 321 323 322 321 320 318 319 320 319 320 319 320 320 319 321 317 312 313 313 312 316 317 314 314 314 314 315 314 313 317 317 314 312 309 309 311 310 309 309 308 307 307 307 308 309 308 309 308 309 310 308 305 303 304 305 306 304 302 299 297 297 297 296 296 295 295 295 294 294 294 294
316 317 319 319 319 318 317 315 313 311 309 306 308 314 317 318 318 319 322 322 321 318 317 318 319 320 321 320 320 319 318 320 317 312 313 314 313 316 317 316 314 311 312 316 316 312 315 318 312 307 306 307 308 306 305 307 308 307 306 307 308 307 307 308 307 306 306 305 303 303 304 305 304 302 300 298 297 297 297 296 296 295 295 294 294 294 294 293
318 318 318 319 319 319 317 315 313 310 306 306 310 314 316 317 319 320 320 319 320 320 319 318 318 321 321 321 321 318 315 316 315 313 315 314 313 316 316 316 314 311 312 317 317 314 316 317 310 305 304 303 302 303 303 307 309 306 306 307 306 304 304 306 306 304 305 304 302 303 304 304 303 302 299 299 298 298 297 296 295 295 295 294 294 294 293 293
318 318 317 318 318 320 319 316 314 309 304 306 311 314 315 316 317 318 317 316 317 319 319 317 319 322 321 320 321 318 314 314 314 314 316 316 315 316 315 314 312 311 312 314 315 315 315 315 309 306 307 302 298 300 301 302 304 304 305 305 303 303 302 303 304 303 303 303 303 304 304 302 304 303 300 298 298 298 298 296 295 295 295 294 294 293 293 293
318 318 318 317 316 318 320 318 314 307 304 307 310 313 315 316 315 315 317 317 317 318 318 318 318 321 321 319 320 318 314 315 315 313 316 318 318 316 314 315 312 309 309 309 311 313 314 315 311 305 305 302 299 302 304 301 300 302 302 302 302 304 303 302 303 302 303 303 304 305 304 302 303 303 300 298 298 298 297 296 295 295 294 294 294 293 293 292
317 317 317 315 312 314 320 320 313 305 306 308 310 313 316 316 315 315 317 317 318 318 318 317 316 318 320 318 319 317 314 316 317 314 315 318 318 315 313 314 313 307 305 306 309 311 311 314 312 304 302 302 301 303 305 303 300 299 300 300 301 302 302 303 302 302 303 303 303 304 303 303 303 303 302 299 297 297 296 296 296 295 294 294 293 293 293 292
317 316 316 314 310 312 320 322 313 306 307 309 310 314 317 317 316 315 316 316 316 317 317 317 317 317 318 318 320 319 316 317 318 316 317 317 317 315 311 312 313 306 302 304 308 309 309 310 310 304 300 302 303 303 304 305 302 300 299 299 300 299 301 302 301 301 302 301 301 302 301 302 302 300 299 298 297 297 296 296 295 294 294 293 293 293 292 292
315 315 315 315 312 315 320 318 311 307 308 309 311 314 316 317 317 315 315 315 315 315 315 316 318 317 316 317 319 319 318 318 317 317 318 316 315 317 313 309 309 306 303 305 307 308 309 309 308 305 302 303 304 302 302 303 303 301 300 300 301 300 301 302 300 301 301 299 300 300 300 301 301 298 298 297 297 297 296 296 295 294 294 293 293 292 292 292
315 315 314 314 315 318 318 314 311 310 310 310 312 314 315 316 317 316 314 313 314 314 313 314 316 316 316 316 317 319 319 319 318 318 317 316 316 316 313 308 306 305 305 306 306 304 306 307 307 306 305 304 302 301 299 299 300 301 300 300 301 300 300 301 301 302 302 299 298 299 299 299 299 299 299 298 297 296 296 296 295 294 293 293 293 292 292 292
314 314 314 314 316 318 316 314 314 313 312 313 314 315 317 316 315 315 314 313 313 314 314 314 314 314 315 316 315 317 318 317 318 317 316 317 315 310 308 306 305 304 305 306 305 302 303 307 307 306 306 302 299 297 297 297 298 299 299 299 299 299 299 300 299 301 301 299 298 299 298 298 298 299 299 297 296 296 296 296 294 294 293 293 292 292 292 291
313 314 314 314 315 315 314 316 317 315 315 315 315 316 317 316 315 315 314 313 313 313 313 313 314 313 314 316 315 315 317 317 318 318 317 318 313 304 302 305 305 304 304 305 305 304 306 308 306 307 308 306 302 299 298 298 297 297 298 299 299 299 299 300 299 299 299 298 298 298 298 298 298 299 298 296 296 296 296 296 294 293 293 293 292 292 292 291
313 313 313 314 313 312 313 316 316 316 316 315 316 316 316 316 316 315 314 314 312 313 314 313 313 313 313 316 315 315 316 315 317 317 317 317 310 300 298 302 302 301 300 301 302 305 308 307 305 309 312 314 314 309 304 300 297 297 298 298 299 299 298 298 298 298 298 297 297 297 297 298 297 298 298 297 297 296 296 295 294 293 293 292 292 292 291 291
313 313 312 311 310 309 311 313 313 316 317 317 317 317 316 317 316 314 314 315 314 313 313 314 314 313 314 315 315 315 315 315 316 316 314 313 307 299 297 298 298 298 297 298 299 303 305 303 303 307 311 313 314 308 302 300 298 297 298 297 298 299 298 298 298 297 298 297 297 297 297 297 297 297 297 297 297 297 296 295 293 293 293 292 292 292 291 291
312 313 312 310 309 308 309 310 311 313 316 317 317 317 317 317 317 315 314 314 315 314 313 314 314 314 315 315 314 314 314 314 316 315 314 313 305 297 296 296 296 296 296 296 298 302 304 303 303 304 305 307 308 304 301 300 298 297 297 296 296 297 299 299 298 297 297 297 297 297 297 297 297 297 297 296 296 296 295 294 293 293 292 292 292 291 291 291
312 312 312 311 311 311 309 309 311 312 314 316 317 317 318 318 317 317 315 314 314 314 314 315 315 314 314 314 314 315 314 314 315 313 314 314 307 299 297 296 295 296 296 297 298 300 302 303 303 303 302 303 303 302 301 300 298 297 297 297 296 297 298 299 298 297 297 297 297 297 297 297 297 296 296 296 295 295 294 293 293 292 292 292 292 291 291 290
312 312 312 312 311 311 311 310 311 311 313 314 316 317 317 317 318 317 316 315 315 314 314 315 315 314 314 314 314 315 314 314 315 314 312 313 311 305 302 301 297 295 296 298 297 297 300 302 301 301 301 301 300 301 300 299 298 297 297 297 296 296 296 297 297 296 296 296 296 296 296 296 296 296 296 296 295 295 294 293 293 292 292 292 291 291 290 290
312 311 312 313 313 312 313 312 311 312 312 313 315 316 316 316 317 316 316 317 315 314 314 314 315 315 315 314 314 314 315 314 315 315 313 312 310 306 305 305 300 296 296 298 297 297 300 301 300 299 300 300 299 299 299 298 297 297 296 297 296 296 296 296 296 296 296 296 296 295 296 295 296 296 296 296 295 294 293 293 292 292 292 291 291 290 290 290
311 311 311 312 314 314 314 313 312 312 313 313 315 315 315 315 315 315 316 316 316 316 314 313 314 315 315 314 314 313 313 313 314 314 312 313 311 307 306 305 301 298 297 297 297 298 298 299 299 299 300 301 299 298 298 297 297 296 296 297 296 296 296 296 296 296 296 296 296 296 296 296 296 296 296 295 294 293 293 292 292 292 292 291 291 290 290 290
310 311 311 312 313 313 314 314 314 314 314 314 314 314 314 314 314 315 316 315 315 316 315 314 314 314 314 314 314 313 312 312 311 309 307 308 307 305 305 303 301 301 298 296 297 298 297 298 299 299 301 301 298 296 296 296 297 298 298 297 297 296 297 297 297 297 296 296 296 296 296 296 296 296 296 295 294 293 292 292 292 291 291 291 290 290 290 289
Wind_Speed
12 13 14 15 17 17 18 18 18 19 19 20 21 22 24 25 26 26 26 27 28 30 31 29 22 17 11 4 2 2 3 8 9 8 8 11 12 11 12 12 13 14 14 13 12 11 9 7 4 5 7 6 1 0 3 5 5 1 1 1 3 2 3 3 4 5 3 3 7 10 13 7 4 8 6 8 2 5 11 15 18 22 19 16 12 12 13 14
11 12 13 14 15 17 17 18 18 18 19 19 21 22 23 24 25 25 25 26 27 30 31 28 21 15 10 4 1 1 3 8 8 8 11 12 11 10 11 11 12 12 12 12 12 11 8 5 3 6 7 6 2 1 0 2 4 1 1 2 2 2 2 4 5 6 6 6 8 10 12 9 7 8 7 5 5 9 10 11 16 20 18 14 12 13 13 15
11 12 13 14 15 16 17 17 17 18 18 19 20 21 22 23 23 24 24 25 26 29 31 27 20 14 10 4 2 2 2 5 6 9 11 10 9 9 10 11 11 11 11 11 11 11 9 7 6 7 8 6 2 1 1 1 3 0 1 1 0 2 1 4 7 8 9 10 9 9 11 8 8 8 6 4 8 11 9 9 13 17 17 16 15 15 15 17
12 12 13 14 14 15 15 17 17 17 18 18 19 20 21 22 22 23 23 25 26 28 30 26 19 13 9 4 2 3 0 1 3 7 8 8 8 8 10 12 12 12 12 11 11 12 11 9 7 6 8 6 5 2 1 2 2 1 2 2 2 2 1 2 5 9 9 10 8 8 9 6 9 6 4 4 4 6 9 13 14 14 15 14 14 15 16 19
12 12 13 14 14 14 15 16 16 16 17 18 19 19 20 21 21 22 22 24 25 27 30 27 20 13 9 6 3 3 1 1 2 5 6 7 6 8 11 12 13 13 12 11 12 12 10 8 8 5 6 5 4 3 2 2 2 2 1 5 5 3 1 1 5 9 8 8 7 8 6 6 9 3 6 8 6 5 10 15 14 14 13 12 13 15 16 19
12 12 13 13 14 14 14 15 15 16 16 17 18 18 19 20 20 21 22 24 24 26 29 27 19 12 7 7 6 2 1 1 2 4 4 5 5 7 10 11 12 12 11 11 11 9 7 7 8 5 4 4 0 1 4 3 2 2 1 7 7 4 1 1 5 8 6 6 5 7 7 7 7 2 10 12 12 11 14 14 12 14 13 13 13 15 17 20
12 12 13 13 14 14 14 14 15 15 16 17 17 18 19 19 20 20 21 23 25 25 28 26 18 10 5 7 7 5 3 0 2 3 3 3 4 7 9 10 11 11 11 10 9 8 7 8 9 8 6 4 1 2 2 1 2 2 1 5 5 2 1 1 5 6 4 4 4 8 10 8 6 4 10 13 16 15 15 12 12 14 13 14 14 16 18 20
12 13 13 13 14 14 15 14 14 15 15 16 17 18 18 19 19 20 21 23 24 25 27 26 17 9 4 3 4 2 2 2 2 2 2 2 4 6 8 10 11 11 10 9 9 9 7 7 8 8 5 1 2 2 4 3 4 5 0 3 3 2 3 3 5 5 4 2 6 10 8 4 4 7 11 14 17 16 14 13 14 14 14 15 15 16 17 19
13 13 13 14 14 15 15 15 15 15 15 16 16 17 18 18 19 20 20 22 24 24 26 25 17 9 4 1 3 2 2 4 3 1 1 2 4 5 7 9 11 10 9 8 8 9 7 5 6 5 4 3 3 4 4 3 3 3 2 1 3 5 7 5 5 4 2 2 9 10 5 1 10 11 9 16 18 16 15 14 15 14 15 16 16 16 16 18
13 13 13 14 14 15 15 16 16 16 16 16 16 18 18 19 19 20 21 21 22 23 25 25 16 8 4 2 4 4 4 6 3 2 1 2 4 6 7 8 10 10 8 7 8 9 7 5 5 5 3 3 4 5 3 1 2 2 4 4 6 6 9 8 7 5 3 2 11 7 5 3 14 11 4 18 19 14 16 15 14 15 16 15 15 15 15 17
13 14 14 14 14 15 15 16 17 17 17 17 17 18 19 19 20 21 21 21 21 20 24 23 14 6 3 2 5 4 5 5 3 2 2 3 5 7 7 7 9 10 8 6 8 8 7 6 5 3 2 3 4 5 5 4 4 4 7 6 8 8 8 9 8 6 6 1 10 9 7 5 10 7 7 21 18 14 16 16 14 15 16 14 14 14 14 15
13 14 14 14 14 14 15 16 17 18 18 18 18 18 20 20 20 21 21 22 20 19 23 22 12 3 1 2 5 5 5 4 3 3 2 4 6 8 7 8 9 9 8 6 7 7 7 7 4 2 2 5 6 3 4 5 7 6 6 3 5 7 6 8 10 9 9 2 9 11 6 3 7 6 15 25 19 17 18 16 15 15 15 13 13 12 13 14
13 14 14 14 14 14 15 16 17 19 19 19 19 19 20 20 21 21 21 22 19 18 23 20 9 4 2 4 5 5 6 5 3 3 3 5 7 9 8 9 10 9 8 6 6 7 8 8 4 3 4 5 4 3 3 4 6 6 4 1 5 4 5 9 10 10 10 3 6 8 3 2 6 10 22 25 20 19 18 16 15 14 13 12 11 11 12 14
13 13 14 15 15 15 15 16 17 18 19 20 20 20 20 21 21 21 21 21 17 18 22 16 5 2 3 5 4 5 6 5 5 4 5 7 8 10 10 10 10 9 9 7 6 6 8 9 6 5 7 7 5 5 5 2 3 3 1 2 3 1 3 7 7 9 8 2 1 3 2 3 1 12 23 23 19 17 16 15 14 13 12 10 9 9 10 12
13 13 14 15 15 15 15 16 17 18 20 20 21 21 21 22 22 20 20 18 16 18 20 10 3 1 4 4 4 5 6 6 6 5 6 8 9 12 12 12 11 10 9 8 6 6 8 10 6 5 6 5 4 5 4 3 3 2 1 2 2 2 1 4 2 5 4 2 2 1 2 3 4 11 20 20 17 17 18 16 14 13 11 9 8 8 9 10
14 14 14 14 15 15 16 16 17 19 20 21 22 22 22 23 21 19 18 15 14 18 16 4 2 4 5 3 4 5 7 9 8 7 8 9 10 13 13 12 11 10 12 10 7 7 9 9 6 6 5 3 3 3 4 1 2 2 0 3 3 3 1 1 1 3 2 2 2 1 1 3 1 11 17 17 16 17 19 15 14 12 10 9 8 6 8 9
14 14 14 14 15 15 16 16 18 19 20 22 23 22 23 22 19 18 15 10 13 18 11 2 2 6 5 5 4 4 8 9 9 9 8 9 11 13 14 13 11 12 14 11 7 8 8 6 4 4 4 3 2 2 4 4 2 0 2 3 3 4 4 2 3 4 4 2 2 2 3 6 2 11 15 16 16 17 18 15 14 12 10 9 7 6 8 10
15 15 14 14 14 15 16 16 18 19 20 22 22 24 23 18 18 16 6 5 15 15 5 2 6 6 3 3 3 5 8 9 8 9 8 9 10 12 15 13 11 12 11 7 5 6 4 4 3 1 1 2 2 5 3 3 2 3 3 3 4 4 5 6 3 2 3 2 2 5 5 7 3 9 13 15 16 17 17 16 14 12 11 9 7 7 8 9
15 15 14 14 14 15 15 16 18 19 22 22 22 24 20 18 19 8 2 11 16 6 1 6 8 5 4 5 5 7 8 8 7 7 8 9 10 14 14 11 11 11 8 3 5 7 4 3 3 2 2 2 4 4 1 3 2 4 4 3 5 5 6 8 3 2 2 1 3 5 5 8 5 5 10 13 16 16 16 15 13 11 10 8 7 7 7 7
15 15 14 14 14 14 15 16 17 19 21 22 24 23 18 19 15 2 10 21 13 5 9 14 11 10 9 8 7 7 6 5 5 6 7 8 11 13 10 11 11 6 3 3 6 6 3 4 3 1 3 4 4 3 1 3 2 3 4 4 6 6 6 7 2 3 4 1 4 5 7 11 8 5 10 15 15 15 14 14 12 11 9 7 6 5 5 6
15 15 14 14 14 14 14 15 16 17 19 20 23 21 15 14 8 5 18 19 10 14 17 13 11 12 11 8 5 4 3 2 3 5 6 8 11 9 7 11 8 3 4 9 8 4 2 4 2 3 3 2 2 1 1 3 3 4 5 5 6 6 6 5 2 3 5 2 3 7 10 11 9 5 11 15 12 11 13 13 12 12 10 7 5 4 4 6
15 14 14 14 13 13 14 14 15 15 16 17 19 17 13 12 8 9 14 11 15 21 13 8 8 9 9 9 5 1 0 2 3 3 5 7 8 6 7 9 5 3 8 9 5 3 4 2 1 3 1 1 1 2 3 4 4 5 5 5 6 3 3 5 1 1 2 2 3 8 9 9 8 4 11 13 10 10 13 13 12 12 10 8 6 4 3 7
15 14 14 14 13 13 13 13 14 13 14 15 16 14 13 13 12 13 11 9 15 14 7 5 4 4 4 6 5 2 1 2 2 2 5 5 5 4 7 5 3 6 6 3 4 4 5 2 2 2 1 1 2 3 4 5 5 5 5 5 6 1 1 3 1 3 6 5 6 8 7 7 4 5 8 9 11 12 13 13 11 10 9 7 5 4 3 8
16 15 14 14 13 13 12 12 13 12 12 13 12 12 12 13 13 15 12 7 7 5 5 5 6 5 4 4 4 2 1 2 2 3 4 4 4 3 4 2 2 5 2 4 4 4 7 3 2 1 1 1 3 4 4 3 3 4 4 4 4 0 1 4 4 6 8 6 5 6 6 6 5 8 6 8 12 11 13 14 12 11 9 7 4 4 6 8
16 15 15 14 13 12 12 12 10 10 11 10 10 10 11 13 14 15 11 4 5 3 3 4 5 6 6 5 3 2 1 3 4 4 5 5 3 2 3 2 2 4 3 4 4 6 6 1 2 1 1 1 2 4 2 1 2 4 1 1 1 1 2 4 6 6 6 4 2 2 4 5 6 9 6 6 8 8 13 14 13 12 9 6 4 5 6 7
16 16 15 14 13 11 11 10 9 9 9 9 9 9 11 12 13 15 9 1 3 2 3 3 5 5 5 4 4 3 2 2 3 5 5 3 2 3 4 2 2 2 3 2 3 4 3 2 3 0 0 2 3 4 1 3 1 3 2 1 2 1 4 5 6 4 2 4 3 2 1 5 3 7 8 8 7 8 10 9 11 12 8 6 5 5 6 8
16 16 15 14 13 11 10 8 9 9 8 8 8 8 10 11 12 13 6 1 3 2 4 3 5 4 4 4 3 3 1 1 2 5 3 2 2 3 3 2 2 2 1 1 3 2 2 3 2 2 1 2 3 3 1 2 1 2 3 1 0 3 6 6 6 4 4 6 6 4 5 6 5 6 9 12 9 8 8 6 9 11 8 6 4 5 6 10
17 16 15 14 12 11 10 9 9 8 7 7 7 7 8 10 12 9 3 2 1 4 3 3 4 4 5 3 3 4 1 1 2 2 3 1 3 1 2 3 3 3 1 2 3 2 2 3 2 3 2 2 2 2 2 1 1 2 2 2 3 5 7 7 6 6 5 5 5 6 6 4 6 3 6 11 10 9 9 7 8 9 8 5 3 4 8 12
17 17 15 14 12 12 10 10 9 7 7 6 6 6 7 9 9 4 2 2 0 3 1 3 4 3 4 2 4 6 4 2 2 2 2 2 4 1 3 4 3 5 4 5 6 4 1 3 2 3 2 3 2 3 2 2 2 1 3 4 5 6 7 6 6 5 5 5 7 6 6 4 5 2 6 7 8 8 8 7 7 9 7 4 3 5 11 14
18 17 15 14 13 12 11 10 9 7 7 6 5 4 7 8 4 2 1 2 1 2 2 4 3 3 4 3 4 6 4 4 4 2 2 2 4 4 5 6 4 4 5 5 8 6 2 4 1 2 3 2 4 3 2 3 1 3 4 4 4 6 6 5 6 4 3 5 6 5 8 8 5 2 6 5 4 7 8 6 7 8 5 3 3 8 14 17
18 17 15 14 13 13 12 11 9 8 7 5 4 4 6 4 0 2 4 1 2 1 3 3 1 2 3 1 1 4 3 4 6 4 3 2 3 3 3 3 2 1 3 4 5 4 1 2 2 1 2 3 4 1 3 4 1 2 1 3 4 4 4 2 1 1 1 5 2 3 1 4 5 2 3 3 3 7 8 6 7 6 3 4 6 12 17 18
18 17 16 15 14 14 13 11 10 9 7 5 4 3 3 1 2 4 3 2 2 2 3 1 1 1 2 2 1 3 1 2 6 5 2 2 2 3 3 3 1 2 4 2 2 3 2 4 1 3 1 3 3 1 1 1 1 2 1 2 3 4 3 2 1 1 3 5 2 5 7 2 6 5 3 7 6 7 9 8 8 6 4 6 9 13 16 18
18 17 16 15 15 15 14 13 11 10 8 5 5 2 0 2 4 4 4 1 1 1 2 2 1 2 3 2 2 2 1 2 6 3 1 3 0 4 3 3 4 2 4 1 3 4 2 2 2 3 0 4 5 1 1 1 2 4 2 2 2 1 3 4 2 2 4 4 3 3 5 3 5 5 5 9 9 10 14 13 10 7 6 7 9 12 14 16
18 17 17 16 16 16 15 14 12 11 9 7 6 3 3 5 4 2 5 4 1 0 2 3 2 2 2 2 3 3 1 4 5 3 1 3 1 3 3 3 4 4 2 1 3 3 3 4 2 2 1 5 5 2 3 1 1 4 3 4 3 2 3 4 1 2 4 5 5 0 3 3 3 3 3 11 13 15 17 14 9 6 6 8 10 11 12 15
17 17 17 16 16 16 15 15 14 11 10 9 5 3 5 6 3 3 5 3 1 2 2 2 2 2 3 4 3 3 2 3 2 3 1 4 4 4 4 4 5 5 3 1 2 2 4 5 1 1 1 4 2 1 2 2 1 2 2 4 1 3 3 3 1 2 1 6 6 3 2 4 3 2 5 12 12 14 15 12 8 7 8 9 9 9 12 14
15 16 17 17 16 15 15 16 14 12 13 10 4 5 8 6 4 4 3 1 1 3 3 0 2 2 4 4 3 3 2 0 1 2 3 5 5 6 5 3 5 8 6 3 1 1 3 4 1 1 1 2 1 2 0 0 0 0 2 1 3 2 2 1 2 1 3 5 6 3 4 4 2 1 3 8 7 8 10 8 8 7 8 8 7 8 11 14
15 16 17 18 17 15 16 17 14 14 15 10 6 8 6 6 8 7 2 3 2 3 3 1 3 4 3 2 3 4 2 0 1 2 2 3 4 6 5 2 5 9 7 3 1 1 1 4 3 1 1 0 1 3 3 2 1 2 2 3 2 1 2 2 1 3 1 6 5 4 6 5 3 3 3 6 6 6 5 6 5 5 7 6 6 9 12 16
16 17 18 20 20 17 16 16 15 16 13 6 8 10 6 7 13 10 4 6 2 3 3 3 3 4 4 3 2 4 4 2 3 3 2 2 3 5 7 3 3 4 3 4 1 1 1 2 3 0 1 0 1 2 2 1 1 2 1 1 1 0 1 2 1 1 2 6 6 5 7 6 5 5 5 8 7 6 4 4 3 4 6 6 8 11 14 18
16 15 17 20 21 20 17 15 15 15 10 5 8 9 6 8 15 16 9 7 4 3 3 5 5 3 4 5 1 3 5 4 4 3 2 3 3 5 8 5 3 2 2 5 3 1 2 2 3 1 2 1 2 0 3 2 1 3 2 2 1 1 2 2 2 2 3 5 6 8 9 3 4 5 8 9 6 5 3 2 2 3 5 7 10 12 16 20
17 11 11 15 17 18 20 17 15 12 7 7 9 8 7 7 12 18 18 11 5 5 4 3 6 6 5 5 4 3 5 6 5 4 3 4 3 4 8 7 5 4 4 5 1 0 2 2 3 1 2 0 2 3 5 5 4 3 2 3 3 2 1 1 1 2 3 5 4 8 10 4 1 0 6 8 5 6 5 2 1 2 4 7 10 12 17 22
16 8 8 13 14 16 19 16 11 9 5 7 8 9 10 9 8 13 19 18 12 10 9 6 6 7 5 5 5 4 4 4 5 5 4 4 4 4 7 9 10 9 5 4 0 2 2 3 4 2 2 4 3 2 2 3 3 4 5 6 6 5 3 2 5 2 2 5 4 5 11 7 2 1 4 6 4 5 5 1 3 3 4 7 9 13 18 22
17 8 7 13 14 17 19 12 8 8 7 9 11 12 11 10 9 10 13 16 14 10 9 8 6 7 7 6 5 3 3 4 5 6 4 5 8 5 5 12 17 15 8 2 1 3 1 1 3 5 5 4 2 0 1 0 1 2 5 5 5 6 6 5 7 3 1 3 2 2 9 7 3 4 4 5 6 6 4 5 3 2 5 7 10 14 19 22
18 12 10 13 17 22 19 7 6 9 7 11 15 16 16 11 7 8 10 11 10 6 6 6 6 9 8 6 6 5 4 4 8 8 5 5 7 4 4 14 18 13 7 1 1 2 2 1 2 5 4 1 0 0 1 2 1 2 5 5 4 6 6 5 5 1 1 4 3 2 8 6 1 2 4 6 7 9 10 6 2 4 6 8 12 16 19 23
18 15 14 14 19 25 18 6 8 10 9 11 12 15 20 17 11 10 9 10 10 6 4 5 7 10 7 5 6 7 6 5 8 7 7 6 4 2 5 14 17 10 4 2 3 7 5 1 2 2 5 3 1 1 1 1 2 4 5 5 5 5 3 1 1 2 2 10 8 6 11 8 1 3 5 7 8 9 9 6 6 6 7 10 14 17 20 24
13 12 14 18 25 28 18 9 7 8 9 11 13 15 17 14 16 19 15 12 14 11 7 6 7 9 6 5 6 8 9 9 7 3 5 5 2 1 3 8 10 6 2 0 4 9 6 1 4 4 6 8 6 4 3 2 3 3 4 6 7 7 7 4 1 3 7 11 10 10 12 10 5 5 5 4 5 5 8 8 7 7 8 11 15 17 21 25
11 8 7 12 23 28 22 16 11 8 9 11 11 14 15 12 14 21 19 15 17 19 15 10 6 7 5 6 7 11 10 10 8 5 3 3 1 1 1 4 3 3 3 2 4 6 2 1 6 9 11 12 9 5 1 3 3 3 5 9 10 10 12 8 4 8 8 5 9 14 13 13 15 12 8 9 8 7 8 6 5 6 8 11 14 16 20 26
11 7 8 8 12 18 19 17 14 10 10 13 9 8 14 14 9 12 19 18 17 19 17 12 9 8 6 8 8 11 11 9 9 11 10 7 2 2 1 3 3 3 5 4 4 5 2 4 9 13 17 17 11 5 2 5 6 7 6 9 11 12 13 12 13 14 6 1 13 17 11 14 18 13 10 9 6 5 6 4 4 6 9 11 13 16 22 27
16 9 16 18 10 7 10 16 19 14 13 14 11 9 14 14 9 9 14 15 16 18 13 10 14 15 13 12 8 8 9 7 8 12 11 8 3 3 1 2 3 5 5 3 2 4 2 6 8 10 16 18 12 9 6 5 6 9 8 8 11 13 14 17 20 17 9 9 17 15 11 16 16 12 11 7 3 7 6 3 3 6 10 11 14 19 24 27
21 10 14 21 16 11 14 21 23 19 16 15 12 14 15 14 15 13 8 5 9 14 12 10 14 16 17 15 11 10 11 8 8 11 8 7 6 5 3 2 4 7 6 3 1 4 3 4 5 7 13 14 10 10 9 9 10 12 11 10 11 14 17 19 20 18 16 20 22 19 19 21 17 13 13 11 11 11 6 2 5 7 9 11 15 21 24 24
28 19 15 17 18 18 16 18 18 15 15 15 14 14 14 16 22 17 9 10 9 6 11 18 19 14 15 17 16 17 18 13 12 14 8 8 6 4 4 3 5 6 5 4 2 3 5 3 2 4 9 10 8 8 9 10 12 15 15 13 14 16 19 20 20 17 16 20 23 22 21 21 17 11 10 14 14 7 2 3 6 6 8 11 16 21 23 23
39 31 22 13 10 15 15 13 12 9 10 14 15 13 13 20 25 17 12 20 21 11 12 21 22 13 11 15 19 22 23 18 16 16 11 11 10 9 8 7 11 8 4 5 4 4 5 3 2 3 4 5 3 6 7 7 10 16 20 19 18 18 19 19 18 15 15 18 21 19 16 16 13 6 5 9 7 2 1 3 5 6 8 12 18 21 20 22
43 34 31 21 11 12 15 11 9 10 12 13 14 15 18 21 22 17 11 18 29 31 28 23 15 9 10 16 21 24 25 20 14 11 10 9 8 10 10 13 18 14 7 7 5 4 6 4 2 4 3 2 3 4 1 3 7 13 15 15 19 21 21 19 16 16 18 17 15 13 13 13 8 3 4 6 3 1 1 2 4 7 12 16 18 17 17 23
Wind_Direction
12 13 12 12 13 13 12 10 10 9 7 3 0 358 360 360 358 357 358 0 2 4 7 10 10 3 6 22 60 76 32 45 38 33 56 53 47 40 39 40 35 30 25 27 26 31 28 12 359 329 317 300 213 101 339 359 360 358 275 267 288 340 69 331 340 17 350 355 5 9 18 21 35 42 2 325 262 140 91 64 53 69 70 65 53 30 25 20
9 10 10 11 11 12 11 9 9 9 7 3 0 359 359 359 356 355 356 359 360 3 6 9 11 5 6 18 88 110 29 45 41 41 54 50 47 49 49 45 35 27 20 20 20 26 32 29 352 345 331 285 233 107 203 344 334 278 317 288 306 29 36 344 358 345 351 4 354 4 1 358 36 38 356 351 91 86 69 42 50 68 59 53 44 31 34 32
5 7 8 9 8 10 9 8 7 7 6 3 0 358 359 358 355 354 356 359 359 2 6 9 12 9 8 20 140 175 42 43 26 28 43 45 47 54 50 39 29 22 19 13 17 28 30 33 19 356 328 297 196 184 207 239 300 133 7 287 125 42 70 17 1 331 344 359 357 355 335 343 32 25 346 356 80 72 55 45 57 67 60 55 47 45 46 42
2 3 5 5 4 4 7 7 5 5 4 2 360 359 358 356 354 354 355 359 359 2 6 9 12 13 13 24 135 173 207 33 5 16 32 41 50 54 40 31 25 19 16 11 21 27 19 13 354 331 309 292 174 188 198 182 312 348 288 155 126 323 130 48 339 318 339 360 352 326 313 349 9 355 332 349 87 76 54 69 74 74 68 59 49 50 50 47
358 360 1 1 0 359 3 5 3 2 2 360 358 358 357 355 353 353 355 358 358 0 5 9 10 14 20 33 109 166 248 274 338 2 27 41 55 48 32 27 23 18 15 17 24 12 357 347 318 287 281 276 178 180 134 129 328 309 259 101 87 345 19 110 309 309 336 357 339 321 331 357 343 357 66 51 91 89 80 89 85 82 77 69 59 52 50 48
353 356 358 358 356 356 357 1 1 359 358 357 355 356 356 354 352 353 353 355 356 357 4 8 8 12 28 47 75 90 353 273 316 350 26 43 55 43 29 28 24 21 23 23 22 6 353 351 333 326 303 281 296 88 124 119 322 276 182 100 80 16 30 128 292 299 332 351 332 330 339 327 312 83 88 81 95 97 99 100 87 88 83 75 66 54 51 48
348 351 354 355 354 353 353 355 357 355 355 354 352 353 354 353 352 352 351 352 353 353 1 7 5 5 27 54 63 73 77 50 316 358 33 47 50 37 25 26 27 25 31 27 20 23 25 10 354 347 318 270 38 51 87 24 238 221 191 120 99 21 352 242 272 289 321 329 328 327 316 290 262 144 104 96 103 106 104 100 96 98 89 77 66 57 53 48
342 345 348 352 351 351 351 351 351 350 350 350 350 350 351 352 351 351 350 350 349 348 356 4 4 357 354 45 42 88 115 350 337 1 24 41 33 25 14 21 26 24 30 23 17 31 35 14 357 342 320 328 40 330 347 345 221 208 93 120 140 177 192 237 252 276 300 294 339 331 311 277 196 147 117 109 112 116 111 104 104 101 92 81 68 59 52 46
337 340 343 346 347 349 350 350 347 344 343 345 346 345 347 349 348 350 350 349 347 344 350 359 3 350 320 308 320 277 257 312 323 300 331 23 13 9 3 13 20 17 23 12 11 30 28 2 349 341 316 336 358 317 346 9 214 213 357 356 234 196 175 210 234 239 246 354 348 338 325 341 154 146 117 122 124 122 115 107 106 100 92 81 72 64 53 46
334 336 339 341 343 345 347 348 347 343 339 337 340 341 341 343 344 345 346 347 344 341 345 353 359 351 333 285 290 278 270 289 285 266 306 350 351 357 354 6 12 10 17 5 9 24 19 357 332 338 311 283 292 284 286 300 224 231 304 295 258 226 173 195 214 195 186 357 344 333 317 300 162 161 115 130 134 130 117 110 111 101 92 84 75 68 56 49
332 334 336 337 338 341 343 346 346 344 339 335 336 337 336 337 339 339 341 343 340 338 342 347 349 349 8 296 279 271 267 272 256 257 306 334 342 344 340 354 1 5 11 0 6 11 7 359 329 332 325 291 290 254 215 232 259 267 300 294 241 219 169 191 202 186 198 238 342 317 296 284 172 178 136 136 139 134 123 117 116 102 94 88 77 71 58 49
328 332 334 335 335 337 339 341 344 344 342 338 337 336 335 334 334 334 336 337 336 335 339 344 342 325 42 277 264 257 253 244 235 256 307 343 342 333 334 348 348 357 4 350 354 359 358 354 325 303 290 300 308 269 194 226 266 281 299 300 190 180 161 195 194 186 204 202 349 325 300 235 185 166 133 138 140 132 127 122 115 102 98 90 78 71 54 42
324 328 331 333 333 334 335 337 340 341 341 340 338 338 336 333 333 332 332 332 332 332 337 343 332 270 263 276 252 237 233 219 228 256 311 337 339 333 337 341 337 344 350 340 339 345 351 351 320 266 264 275 288 288 275 268 273 267 262 224 154 159 184 199 191 186 203 228 353 341 336 217 200 151 136 143 146 134 125 118 112 101 96 89 79 67 48 34
318 322 327 330 331 332 331 332 335 337 338 337 336 338 336 333 332 330 329 328 326 331 338 343 345 242 249 269 246 222 218 216 242 269 313 331 335 337 341 338 331 331 336 333 326 332 340 342 325 267 252 250 261 295 293 261 256 247 186 217 199 191 186 183 183 179 189 219 14 350 285 263 258 134 139 149 152 140 126 114 112 106 99 95 82 65 46 31
312 317 324 327 329 330 330 330 332 334 335 335 334 335 337 334 331 328 327 322 321 333 338 346 30 295 259 255 239 228 224 232 262 284 311 326 332 338 340 333 325 323 329 326 314 325 328 327 319 268 263 260 258 292 283 184 205 242 105 280 270 19 161 167 166 168 176 252 166 61 256 291 13 125 141 150 150 137 126 120 119 114 109 104 85 66 43 25
306 312 318 323 327 328 329 329 329 332 332 333 332 333 337 334 330 327 323 314 319 336 336 347 52 308 274 256 246 238 240 246 265 283 298 316 329 337 335 329 328 326 327 329 320 314 313 318 309 266 270 270 225 258 290 284 227 226 62 320 337 354 298 167 213 181 155 292 227 119 220 274 19 132 139 145 144 130 125 126 126 120 115 107 85 67 40 24
302 308 314 319 324 326 329 330 330 331 331 332 332 333 336 335 332 326 315 304 325 338 332 252 340 313 264 250 257 244 250 253 264 274 284 307 323 334 334 329 329 328 323 323 330 320 305 305 301 275 256 232 253 355 351 340 320 296 29 351 302 304 318 295 235 200 165 151 278 316 249 254 199 135 139 145 142 133 132 134 134 127 120 111 86 66 37 25
298 303 309 315 321 325 328 330 331 331 331 334 334 335 338 337 336 329 301 310 331 336 331 278 335 322 246 241 251 242 257 267 270 268 279 303 319 331 333 328 323 327 318 298 323 331 302 274 249 272 278 214 19 39 29 339 339 303 324 337 297 303 307 280 248 209 209 159 294 300 261 252 227 142 145 150 146 139 137 137 137 132 124 113 86 65 36 23
294 299 304 311 317 323 327 331 333 334 334 334 335 338 341 342 344 343 249 331 334 333 294 314 316 279 262 290 263 250 268 279 268 261 281 302 323 328 330 337 330 327 314 279 330 330 319 317 274 270 335 55 46 43 353 320 339 300 297 298 286 285 275 269 256 179 224 289 264 269 265 262 257 168 154 156 152 142 139 139 139 133 124 110 82 62 34 18
287 294 300 306 313 320 326 330 334 336 337 340 343 347 353 351 354 351 316 330 333 296 293 301 286 252 264 284 264 257 274 282 258 267 290 307 328 333 345 351 328 304 302 323 323 317 341 339 301 324 22 42 29 13 322 311 302 282 275 253 255 257 260 272 274 146 114 50 260 267 277 265 260 218 164 158 152 143 144 145 143 137 123 110 88 63 33 14
282 290 296 302 309 316 323 329 334 337 341 346 350 360 13 5 2 311 324 331 320 305 301 292 271 250 251 252 256 275 277 273 253 273 304 322 335 347 7 351 325 268 326 319 296 284 340 316 312 53 34 15 5 339 273 272 261 263 255 249 255 251 263 287 308 145 113 84 257 266 265 258 263 234 159 157 158 154 157 148 141 135 122 117 107 89 45 14
279 284 292 297 303 313 320 327 334 337 342 346 354 7 16 4 355 333 330 318 302 304 296 278 261 251 247 233 241 309 339 264 241 262 311 333 351 358 339 337 340 317 318 313 307 338 335 295 103 63 30 324 272 213 230 240 240 256 246 246 255 246 288 300 328 100 35 26 262 267 264 265 271 206 157 163 161 147 149 140 134 132 124 123 107 100 56 12
275 278 286 291 298 310 316 326 332 335 343 348 357 6 3 356 349 341 334 299 297 301 276 255 220 221 245 220 228 264 284 262 212 282 324 350 13 351 324 331 331 310 313 345 26 358 302 276 98 59 74 9 281 229 236 242 235 241 239 251 256 242 44 268 278 5 325 301 269 280 274 269 266 154 152 157 141 130 135 132 132 133 127 126 112 96 39 8
271 274 280 286 294 303 311 323 327 331 343 350 356 358 355 349 343 342 337 294 280 286 259 241 191 191 212 199 220 232 256 262 235 285 311 349 3 342 325 347 314 297 328 43 13 291 274 286 48 40 145 34 307 281 268 262 264 259 260 266 258 2 52 255 300 322 304 283 269 299 288 258 172 158 168 140 134 139 145 145 145 141 130 125 110 68 24 3
267 270 275 281 288 297 308 315 318 328 340 346 350 352 350 343 339 343 341 295 262 258 227 219 196 199 203 203 222 203 245 258 240 271 297 328 0 30 334 311 262 287 349 19 321 280 269 292 45 315 220 356 294 282 273 159 281 282 279 79 83 18 309 281 298 307 303 278 226 36 317 274 159 167 182 143 151 165 161 161 152 143 136 123 91 47 18 353
263 266 271 276 282 291 301 305 309 322 334 341 345 347 344 338 336 342 348 298 258 215 152 182 188 192 202 206 219 223 262 247 248 283 290 307 4 27 341 285 191 271 343 357 296 279 248 121 75 134 278 320 272 271 266 114 323 283 230 93 57 313 271 268 277 287 280 257 246 94 300 275 195 188 189 167 176 176 170 167 147 146 143 114 79 43 11 345
260 263 267 271 276 281 288 293 299 312 328 336 339 338 337 334 333 343 0 269 256 163 130 169 179 187 196 190 196 197 216 223 300 293 232 173 19 17 321 273 251 246 118 40 299 250 172 128 119 200 208 270 265 269 247 105 50 247 207 172 66 265 259 256 257 251 242 266 274 217 212 257 262 225 187 169 173 178 176 166 145 149 139 100 68 35 0 340
256 259 263 266 269 271 275 279 286 299 311 320 329 328 330 329 328 344 17 302 272 133 131 161 169 199 197 198 219 212 262 322 320 284 182 202 344 38 246 270 300 287 135 116 275 248 148 151 186 185 174 233 236 205 198 130 140 206 208 224 237 248 253 252 248 246 251 274 272 213 191 247 264 234 158 160 173 184 178 166 152 141 120 89 57 20 347 340
252 256 259 259 261 262 265 269 272 283 292 304 316 314 321 322 325 7 70 285 83 114 133 152 155 184 187 223 231 217 243 244 226 243 197 296 314 226 250 280 304 292 253 207 237 266 141 140 150 131 159 224 184 158 177 157 184 276 310 280 258 246 245 244 237 245 260 263 261 229 186 221 271 189 146 169 186 189 179 159 139 127 112 77 45 3 343 346
249 252 254 252 254 253 253 257 259 264 276 290 295 298 315 315 325 51 219 253 29 81 115 140 147 159 188 238 215 187 202 210 200 231 223 257 281 254 265 283 287 276 265 241 248 259 141 124 140 171 203 181 136 158 186 181 255 346 331 288 280 257 243 229 219 228 274 257 265 252 201 207 263 194 158 189 184 160 160 146 126 124 113 70 29 356 350 352
246 247 249 248 246 245 245 247 248 252 261 273 277 285 305 312 35 190 232 259 10 144 129 133 160 156 187 247 188 172 195 215 186 186 223 207 229 239 254 281 293 313 285 267 264 276 141 175 217 196 200 133 109 189 201 194 232 31 333 295 316 295 259 240 214 112 239 242 270 355 330 213 242 238 150 162 127 122 137 141 133 133 110 49 16 357 354 353
243 244 244 244 241 240 241 241 239 243 249 251 252 270 312 307 205 219 229 27 4 204 154 130 190 167 151 79 263 213 210 216 177 176 201 137 184 223 201 207 158 348 286 248 309 316 246 225 164 86 154 170 132 55 218 244 234 183 233 292 317 328 313 292 334 135 230 243 202 61 34 296 243 256 184 161 141 116 122 126 124 117 69 32 13 357 353 350
240 240 239 238 237 236 234 235 236 235 237 227 217 217 84 218 221 210 206 224 310 197 112 82 95 99 107 104 251 194 81 229 188 162 112 109 202 261 238 206 147 186 262 318 351 309 285 306 114 98 307 193 179 159 196 247 195 194 197 169 190 346 319 280 277 248 250 251 205 88 30 292 249 270 211 161 139 124 122 122 120 98 61 32 10 357 348 344
238 238 237 232 232 233 229 229 229 227 224 209 198 187 192 226 240 220 219 220 217 160 94 82 90 112 140 212 230 156 123 247 187 126 72 126 159 258 253 235 165 167 239 345 326 261 263 299 205 172 173 175 185 164 163 165 183 207 165 122 156 154 230 255 263 247 270 278 248 197 359 233 206 299 152 134 130 130 130 130 121 84 51 25 5 355 345 340
239 241 239 234 230 229 228 227 223 220 214 199 193 201 205 224 240 237 240 236 175 174 125 102 130 160 225 228 218 177 190 251 140 103 184 178 191 225 208 200 186 166 141 168 265 213 228 256 233 77 118 149 167 79 126 95 344 253 94 87 175 178 209 252 238 193 265 303 272 204 237 214 156 29 96 122 131 137 137 130 103 58 29 18 3 352 345 340
242 246 244 240 232 226 227 227 222 218 209 193 192 221 216 223 218 211 223 161 147 146 118 162 186 199 255 226 208 206 169 240 97 99 219 202 215 228 208 181 178 178 171 171 241 262 244 260 257 50 26 87 52 349 344 83 197 251 87 158 230 168 131 247 294 20 60 300 272 191 247 256 138 98 122 131 148 153 140 115 85 47 21 11 357 350 344 339
242 251 251 245 235 226 226 226 222 215 204 193 213 225 219 227 229 232 196 122 112 112 113 269 192 186 244 253 202 192 148 5 166 156 231 211 223 217 197 170 169 187 192 164 218 266 247 265 239 159 323 127 65 343 317 290 135 128 166 208 217 63 84 128 291 3 39 269 262 181 226 239 180 216 181 154 174 175 143 102 80 39 20 0 347 351 342 338
243 258 259 249 237 228 225 225 223 211 198 197 235 235 231 232 234 234 179 140 132 94 133 227 204 177 214 245 221 162 153 175 166 177 222 212 224 185 166 170 173 191 191 140 191 311 61 268 257 76 328 228 67 353 300 275 82 110 222 266 83 82 228 137 144 242 235 266 273 245 242 227 195 202 176 177 187 170 137 94 68 11 8 354 347 349 340 338
244 260 260 251 240 229 225 226 218 204 193 206 228 230 230 233 239 236 205 163 156 144 170 220 216 209 213 210 197 129 163 185 172 179 204 198 218 171 159 177 174 148 106 124 177 273 78 245 259 334 323 21 71 228 202 195 80 75 359 319 98 174 213 169 155 187 228 266 280 284 283 242 198 194 161 169 172 144 136 92 61 339 347 353 348 345 341 339
238 251 251 243 235 226 222 221 211 196 198 223 223 229 236 232 237 234 221 204 184 183 202 209 199 223 237 223 233 197 188 205 200 200 203 186 212 198 178 174 150 132 78 71 114 23 94 217 243 319 334 222 177 201 197 191 174 151 187 219 202 177 146 234 239 157 207 254 266 284 284 263 202 255 132 139 143 137 140 132 236 291 342 355 347 344 342 338
228 237 240 225 222 220 212 205 201 197 213 233 229 235 242 242 239 229 218 214 213 212 220 227 213 224 243 238 235 212 196 223 212 213 235 205 202 229 199 171 147 143 110 54 163 199 157 210 232 244 231 223 217 193 190 191 177 187 201 201 202 189 148 233 252 192 177 240 229 257 277 274 216 206 122 123 140 135 127 173 256 296 2 358 346 343 339 335
218 227 229 211 211 209 199 193 200 205 219 229 229 233 237 243 240 220 205 206 215 220 223 235 233 232 243 237 227 203 193 242 229 209 228 209 197 216 196 167 159 155 145 109 213 195 124 118 235 251 241 229 237 80 63 110 175 235 236 211 193 188 174 204 239 224 153 242 220 244 277 277 174 163 139 130 143 149 181 230 252 339 13 359 343 340 335 332
216 221 215 206 207 197 189 198 211 205 227 232 233 239 238 237 227 207 197 196 204 209 216 229 221 222 234 221 215 218 191 241 249 225 221 227 207 204 159 163 164 154 142 153 183 140 104 96 227 267 279 236 144 331 47 56 57 264 244 215 196 201 189 197 228 208 137 230 197 199 257 262 140 141 145 144 158 179 210 237 359 19 8 356 341 337 334 331
218 224 220 212 201 190 188 215 209 207 232 230 234 242 238 236 223 208 200 189 188 189 208 232 218 216 222 188 200 215 182 212 255 225 205 220 208 143 141 169 174 168 165 201 166 159 170 174 156 274 298 279 266 284 261 156 181 233 232 206 212 216 173 157 218 97 246 239 215 214 248 249 187 154 158 161 177 197 234 288 10 18 2 353 340 336 333 329
217 226 226 214 197 191 201 225 215 225 229 220 235 238 235 240 228 220 220 207 204 204 215 239 217 206 204 171 200 222 200 208 244 221 182 203 205 117 156 183 183 177 174 117 153 166 180 202 167 198 263 261 267 284 262 193 186 227 227 204 211 210 200 212 200 184 239 239 216 220 245 251 225 202 206 224 230 249 281 311 356 6 354 346 336 333 331 328
206 209 209 197 193 200 218 229 228 247 230 219 239 234 227 239 230 221 221 224 224 218 224 239 212 194 195 174 207 238 223 210 221 229 214 201 184 32 185 185 166 132 115 114 147 155 136 292 211 219 240 245 258 277 195 141 172 206 211 206 210 212 213 214 213 223 232 243 239 234 238 259 262 253 264 282 281 281 290 312 357 359 343 337 331 328 329 327
206 212 194 169 185 210 227 231 228 237 233 226 237 234 225 229 228 213 207 216 227 221 227 238 209 197 201 182 207 241 230 211 216 234 244 228 167 56 155 157 132 133 128 135 158 135 104 252 223 226 241 247 262 280 156 155 201 217 209 204 209 213 213 211 219 228 213 191 254 246 231 251 262 264 270 270 270 284 293 324 1 349 332 325 325 327 328 326
207 222 208 195 191 202 214 219 218 221 233 232 232 245 238 228 227 216 199 207 223 214 212 231 218 212 210 197 205 239 229 211 220 231 238 229 174 110 145 155 161 176 144 133 181 128 134 250 219 217 245 252 260 267 244 223 236 235 220 207 212 215 214 218 228 232 219 228 253 261 254 252 258 268 270 264 282 294 296 334 344 327 323 321 327 330 326 323
209 229 215 204 211 214 204 205 206 212 225 228 229 238 240 234 233 230 195 185 228 214 203 228 229 214 212 210 207 230 231 212 226 235 216 203 204 164 168 208 180 183 161 129 191 133 144 254 219 215 255 261 254 259 263 263 264 259 243 222 222 227 225 230 235 234 231 241 255 264 265 264 265 267 273 286 296 288 284 339 324 315 321 325 329 327 321 319
211 214 206 202 221 229 213 196 193 207 221 221 229 234 228 232 238 234 206 199 221 206 195 226 236 213 204 214 212 227 233 213 226 241 195 176 214 181 179 205 151 163 174 145 172 189 189 232 151 188 260 268 245 242 258 261 263 268 261 238 230 239 241 240 240 236 233 243 252 256 262 267 266 262 273 282 280 270 257 313 307 312 323 325 324 321 317 316
215 216 213 210 231 230 217 200 186 198 220 216 224 229 219 228 233 230 224 223 228 223 195 217 234 221 203 218 217 227 234 221 231 245 211 196 214 193 189 181 146 148 179 167 175 198 198 219 98 130 247 266 212 210 242 270 276 272 265 246 231 234 239 239 237 231 228 237 247 251 253 259 265 273 269 262 256 216 151 303 313 318 319 321 320 316 312 314
215 218 219 219 236 226 217 214 192 202 226 217 212 219 222 227 225 218 231 235 229 230 228 222 223 217 222 229 226 231 237 231 234 242 215 206 206 184 180 172 161 161 167 169 183 186 182 198 154 144 216 285 84 136 167 350 299 273 260 232 219 225 234 240 242 234 227 229 240 245 243 252 273 295 249 243 239 140 94 3 337 322 316 317 315 306 304 312